• In Österreich
  • Länderverzeichnis
  • Für 7 Tage
  • Wassertemperatur
  • Satellitenkarten
  • Wetterkarte
  • News
  • Widgets
  • user-avatar
    Anmelden

    Stündliche Wetter Fier

    Heute, 20 Juli, Freitag

    Zeit Temperatur Niederschläge Wind Luftdruck Luftfeuchtigkeit
    00:00 +24°C° 0 mm 2 m/S 757 mmHg 74%
    01:00 +23°C° 0 mm 2 m/S 757 mmHg 74%
    02:00 +23°C° 0 mm 2 m/S 757 mmHg 74%
    03:00 +23°C° 0 mm 2 m/S 757 mmHg 73%
    04:00 +23°C° 0 mm 2 m/S 757 mmHg 73%
    05:00 +25°C° 0 mm 2 m/S 757 mmHg 68%
    06:00 +26°C° 0 mm 1 m/S 757 mmHg 63%
    07:00 +28°C° 0 mm 1 m/S 757 mmHg 58%
    08:00 +29°C° 0 mm 2 m/S 757 mmHg 53%
    09:00 +31°C° 0 mm 2 m/S 757 mmHg 49%
    10:00 +33°C° 0 mm 3 m/S 757 mmHg 44%
    11:00 +34°C° 0 mm 3 m/S 757 mmHg 43%
    12:00 +34°C° 0 mm 4 m/S 757 mmHg 42%
    13:00 +35°C° 0 mm 5 m/S 757 mmHg 41%
    14:00 +35°C° 0 mm 5 m/S 757 mmHg 43%
    15:00 +34°C° 0 mm 5 m/S 757 mmHg 45%
    16:00 +34°C° 0 mm 5 m/S 757 mmHg 47%
    17:00 +32°C° 0 mm 4 m/S 757 mmHg 53%
    18:00 +29°C° 0 mm 4 m/S 757 mmHg 60%
    19:00 +27°C° 0 mm 3 m/S 757 mmHg 66%
    20:00 +26°C° 0 mm 3 m/S 757 mmHg 67%
    21:00 +26°C° 0 mm 2 m/S 758 mmHg 69%
    22:00 +25°C° 0 mm 2 m/S 758 mmHg 71%
    23:00 +25°C° 0 mm 2 m/S 758 mmHg 71%

    Morgen, 21 Juli, Samstag

    Zeit Temperatur Niederschläge Wind Luftdruck Luftfeuchtigkeit
    00:00 +25°C° 0 mm 2 m/S 758 mmHg 71%
    01:00 +24°C° 0 mm 1 m/S 758 mmHg 72%
    02:00 +24°C° 0 mm 2 m/S 758 mmHg 72%
    03:00 +24°C° 0 mm 2 m/S 758 mmHg 72%
    04:00 +24°C° 0 mm 2 m/S 758 mmHg 72%
    05:00 +26°C° 0 mm 1 m/S 758 mmHg 67%
    06:00 +27°C° 0 mm 1 m/S 758 mmHg 62%
    07:00 +29°C° 0 mm 1 m/S 758 mmHg 56%
    08:00 +31°C° 0 mm 1 m/S 758 mmHg 50%
    09:00 +32°C° 0 mm 2 m/S 758 mmHg 43%
    10:00 +35°C° 0 mm 2 m/S 758 mmHg 37%
    11:00 +35°C° 0 mm 3 m/S 758 mmHg 35%
    12:00 +36°C° 0 mm 3 m/S 758 mmHg 33%
    13:00 +37°C° 0 mm 4 m/S 758 mmHg 31%
    14:00 +37°C° 0 mm 4 m/S 758 mmHg 33%
    15:00 +36°C° 0 mm 3 m/S 758 mmHg 35%
    16:00 +36°C° 0 mm 3 m/S 758 mmHg 37%
    17:00 +34°C° 0 mm 3 m/S 758 mmHg 43%
    18:00 +30°C° 0 mm 2 m/S 758 mmHg 50%
    19:00 +28°C° 0 mm 1 m/S 758 mmHg 57%
    20:00 +28°C° 0 mm 1 m/S 758 mmHg 57%
    21:00 +27°C° 0 mm 1 m/S 758 mmHg 58%
    22:00 +26°C° 0 mm 1 m/S 758 mmHg 58%
    23:00 +26°C° 0 mm 1 m/S 758 mmHg 57%

    übermorgen, 22 Juli, Sonntag

    Zeit Temperatur Niederschläge Wind Luftdruck Luftfeuchtigkeit
    00:00 +26°C° 0 mm 2 m/S 758 mmHg 56%
    01:00 +26°C° 0 mm 2 m/S 758 mmHg 54%
    02:00 +25°C° 0 mm 2 m/S 758 mmHg 53%
    03:00 +25°C° 0 mm 2 m/S 758 mmHg 52%
    04:00 +25°C° 0 mm 3 m/S 758 mmHg 51%
    05:00 +27°C° 0 mm 3 m/S 757 mmHg 48%
    06:00 +29°C° 0 mm 3 m/S 757 mmHg 46%
    07:00 +31°C° 0 mm 3 m/S 757 mmHg 43%
    08:00 +34°C° 0 mm 4 m/S 757 mmHg 38%
    09:00 +36°C° 0 mm 4 m/S 756 mmHg 33%
    10:00 +39°C° 0 mm 5 m/S 756 mmHg 27%
    11:00 +40°C° 0 mm 6 m/S 756 mmHg 27%
    12:00 +41°C° 0 mm 7 m/S 756 mmHg 26%
    13:00 +41°C° 0 mm 8 m/S 755 mmHg 25%
    14:00 +40°C° 0 mm 8 m/S 755 mmHg 26%
    15:00 +40°C° 0 mm 8 m/S 755 mmHg 27%
    16:00 +39°C° 0 mm 8 m/S 754 mmHg 29%
    17:00 +37°C° 0 mm 8 m/S 755 mmHg 35%
    18:00 +34°C° 0 mm 7 m/S 755 mmHg 41%
    19:00 +32°C° 0 mm 7 m/S 755 mmHg 47%
    20:00 +30°C° 0 mm 7 m/S 755 mmHg 49%
    21:00 +29°C° 0 mm 7 m/S 755 mmHg 51%
    22:00 +28°C° 0 mm 6 m/S 755 mmHg 52%
    23:00 +27°C° 0 mm 6 m/S 755 mmHg 53%

    23 Juli, Montag

    Zeit Temperatur Niederschläge Wind Luftdruck Luftfeuchtigkeit
    00:00 +27°C° 0 mm 5 m/S 755 mmHg 54%
    01:00 +26°C° 0 mm 4 m/S 755 mmHg 55%
    02:00 +26°C° 0 mm 4 m/S 755 mmHg 61%
    03:00 +25°C° 0 mm 3 m/S 755 mmHg 67%
    04:00 +25°C° 0 mm 3 m/S 755 mmHg 73%
    05:00 +26°C° 0,1 mm 3 m/S 755 mmHg 71%
    06:00 +27°C° 0,1 mm 2 m/S 755 mmHg 68%
    07:00 +28°C° 0,1 mm 2 m/S 755 mmHg 66%
    08:00 +29°C° 0 mm 2 m/S 754 mmHg 61%
    09:00 +30°C° 0 mm 2 m/S 754 mmHg 55%
    10:00 +31°C° 0 mm 2 m/S 754 mmHg 50%
    11:00 +33°C° 0 mm 3 m/S 754 mmHg 47%
    12:00 +34°C° 0 mm 4 m/S 753 mmHg 44%
    13:00 +34°C° 0 mm 4 m/S 753 mmHg 41%
    14:00 +33°C° 0,2 mm 4 m/S 753 mmHg 44%
    15:00 +33°C° 0,2 mm 5 m/S 753 mmHg 46%
    16:00 +32°C° 0,2 mm 5 m/S 753 mmHg 48%
    17:00 +29°C° 0,6 mm 4 m/S 753 mmHg 56%
    18:00 +27°C° 0,6 mm 4 m/S 753 mmHg 64%
    19:00 +25°C° 0,6 mm 3 m/S 754 mmHg 72%
    20:00 +25°C° 0,5 mm 3 m/S 754 mmHg 75%
    21:00 +24°C° 0,5 mm 3 m/S 754 mmHg 78%
    22:00 +22°C° 0,5 mm 3 m/S 754 mmHg 82%
    23:00 +23°C° 0,1 mm 2 m/S 754 mmHg 83%

    24 Juli, Dienstag

    Zeit Temperatur Niederschläge Wind Luftdruck Luftfeuchtigkeit
    00:00 +21°C° 0,1 mm 2 m/S 753 mmHg 84%
    01:00 +21°C° 0,1 mm 2 m/S 753 mmHg 85%
    02:00 +21°C° 0 mm 2 m/S 753 mmHg 85%
    03:00 +20°C° 0 mm 2 m/S 753 mmHg 84%
    04:00 +20°C° 0 mm 2 m/S 753 mmHg 84%
    05:00 +23°C° 0 mm 2 m/S 753 mmHg 78%
    06:00 +24°C° 0 mm 2 m/S 753 mmHg 71%
    07:00 +25°C° 0 mm 2 m/S 753 mmHg 65%
    08:00 +27°C° 0 mm 2 m/S 753 mmHg 59%
    09:00 +28°C° 0 mm 2 m/S 753 mmHg 53%
    10:00 +30°C° 0 mm 3 m/S 753 mmHg 47%
    11:00 +31°C° 0 mm 3 m/S 753 mmHg 45%
    12:00 +32°C° 0 mm 4 m/S 753 mmHg 44%
    13:00 +33°C° 0 mm 5 m/S 753 mmHg 42%
    14:00 +33°C° 0 mm 5 m/S 753 mmHg 45%
    15:00 +32°C° 0 mm 5 m/S 753 mmHg 47%
    16:00 +32°C° 0 mm 5 m/S 753 mmHg 50%
    17:00 +29°C° 0 mm 4 m/S 753 mmHg 57%
    18:00 +28°C° 0 mm 4 m/S 753 mmHg 63%
    19:00 +26°C° 0 mm 4 m/S 754 mmHg 70%
    20:00 +26°C° 0,1 mm 3 m/S 754 mmHg 73%
    21:00 +25°C° 0,1 mm 3 m/S 754 mmHg 76%
    22:00 +24°C° 0,1 mm 2 m/S 755 mmHg 79%
    23:00 +24°C° 0 mm 2 m/S 755 mmHg 78%

    25 Juli, Mittwoch

    Zeit Temperatur Niederschläge Wind Luftdruck Luftfeuchtigkeit
    00:00 +23°C° 0 mm 2 m/S 755 mmHg 78%
    01:00 +23°C° 0 mm 2 m/S 755 mmHg 77%
    02:00 +23°C° 0 mm 2 m/S 755 mmHg 76%
    03:00 +23°C° 0 mm 2 m/S 755 mmHg 75%
    04:00 +23°C° 0 mm 2 m/S 755 mmHg 74%
    05:00 +24°C° 0 mm 2 m/S 755 mmHg 68%
    06:00 +26°C° 0 mm 2 m/S 755 mmHg 63%
    07:00 +28°C° 0 mm 2 m/S 755 mmHg 58%
    08:00 +30°C° 0 mm 2 m/S 755 mmHg 52%
    09:00 +32°C° 0 mm 2 m/S 755 mmHg 47%
    10:00 +34°C° 0 mm 2 m/S 755 mmHg 41%
    11:00 +35°C° 0 mm 3 m/S 755 mmHg 40%
    12:00 +35°C° 0 mm 3 m/S 755 mmHg 39%
    13:00 +36°C° 0 mm 4 m/S 755 mmHg 38%
    14:00 +35°C° 0 mm 4 m/S 755 mmHg 41%
    15:00 +34°C° 0 mm 4 m/S 755 mmHg 45%
    16:00 +34°C° 0 mm 5 m/S 755 mmHg 49%
    17:00 +32°C° 0,1 mm 4 m/S 755 mmHg 55%
    18:00 +29°C° 0,1 mm 3 m/S 755 mmHg 61%
    19:00 +28°C° 0,1 mm 3 m/S 756 mmHg 67%
    20:00 +27°C° 0 mm 2 m/S 756 mmHg 70%
    21:00 +26°C° 0 mm 2 m/S 756 mmHg 72%
    22:00 +25°C° 0 mm 1 m/S 756 mmHg 75%
    23:00 +25°C° 0 mm 1 m/S 756 mmHg 74%
    Mehr zeigen